STARLINK-3728, 52361

Orbit data source: Space-Track

STARLINK-3728, 52361 is a payload satellite owned by SpaceX/Seattle (US) in LEO that was launched on Fri, 29 Apr 2022 UTC via an FALCON 9 launch vehicle from the Air Force Eastern Test Range (AFETR). Payload-class satellites include a variety of spacecraft equipped with specific instruments for various scientific and technological missions. These include communications satellites like Starlink; space stations such as the ISS; scientific satellites like the Hubble; Earth observation satellites from companies like Planet Labs, Umbra, and HawkEye 360; GPS; miniature CubeSats for education and research; and military/defense satellites.

Loading next visibility...
Identifier
52361, 2022-045AG
Orbit
LEO
Country
Flag of USUS
Related business
Manufacturer
SpaceX/Seattle
Mission
Operational Commercial Communications
Bus & Motor
STARLINK, Unknown motor
Mass
297 kg wet, ~275 kg dry
Launch date (UTC)
2022-04-29 (4 years ago)
Launch vehicle
FALCON 9
Launch site
Air Force Eastern Test Range (AFETR)
Object type
Payload
Rocket body
Debris
Shape & HBR
Box + 1 Pan, 10.1 m
Radar Cross Section
11.087 m², Large (>1 m²)

Expand to show TLE details & history
Last TLE update: 2 days ago

TLE from 2 days ago
0 STARLINK-3728
1 52361U 22045AG  26171.27599946  .00046310  00000-0  28788-2 0  9997
2 52361  53.1599  98.4777 0001228  64.0141 296.0977 15.09217593231279
Epoch: 2026-06-20T06:37Z
TLE epoch observation values (Epoch: 2026-06-20T06:37:26.353Z)
Latitude
-0.00001°
Longitude
90.62494°
Altitude
539.107 km
Speed
7.594 km/s
True Right ascension
06h 33m 54s
True Declination
0° 00' 00"
Sunlit
Object was in daylight at epoch
Visualization orbit readout
Latitude
Unknown
Longitude
Unknown
Altitude
Unknown
Speed
Unknown
Apparent Right ascension
Unknown
Apparent Declination
Unknown
Sunlit
N/A
Visualization observer readout
Local Sidereal Time
21:52:38
Azimuth
Unknown
Elevation
Unknown
Doppler factor
Unknown
Orbital elements
Apogee altitude
539.693 km
Perigee altitude
537.994 km
Semi-major axis
6,916.981 km
Eccentricity
0.00012
Inclination
53.1599°
RAAN
98.4777°
Arg. of periapsis
64.0141°
True anomaly
296.08506°
Mean anomaly
296.0977°
Eccentric anomaly
296.09138°
Mean motion
3.77284 °/min
Orbital period
95.42 mins
BSTAR
0.0028788
Loading maneuver chart data...
Computing Atmospheric mass density...

Documentation

Showing up to 5 results
|